Rawlins, WY

5:24 AM MST on February 20, 2018 (GMT -0700)
Rawlins Municipal

Weather History for KRWL - December, 2011

Change the Weather History Date:

Wednesday, December 14, 2011

  Actual Average Record
Temperature  
Mean Temperature 23 °F 21 °F  
Max Temperature 28 °F 30 °F 54 °F (1998)
Min Temperature 17 °F 12 °F -10 °F (2007)
Degree Days  
Heating Degree Days 42 44  
Month to date heating degree days 688 603  
Since 1 July heating degree days 2558 2709  
Cooling Degree Days 0 0  
Month to date cooling degree days 0 0  
Year to date cooling degree days 242 186  
Moisture  
Dew Point 19 °F    
Average Humidity 80    
Maximum Humidity 92    
Minimum Humidity 68    
Precipitation  
Precipitation T in 0.01 in 0.30 in (2014)
Month to date precipitation 0.11 0.19  
Year to date precipitation 9.77 9.01  
Sea Level Pressure  
Sea Level Pressure 30.02 in    
Wind  
Wind Speed 15 mph (WSW)    
Max Wind Speed 30 mph    
Max Gust Speed 37 mph    
Visibility 7 miles    
Events Snow    
T = Trace of Precipitation, MM = Missing Value Source: NWS Daily Summary

Daily Weather History Graph

Daily Weather History Graph

Search for Another Location

Airport or City:

Trip Planner

Search our weather history database for the weather conditions in past years. The results will help you decide how hot, cold, wet, or windy it might be!

Date:

Astronomy

Dec. 14, 2011 Rise Set
Actual Time 7:28 AM MST 4:38 PM MST
Civil Twilight 6:56 AM MST 5:10 PM MST
Nautical Twilight 6:21 AM MST 5:45 PM MST
Astronomical Twilight 5:47 AM MST 6:18 PM MST
Moon 9:04 PM MST (12/14) 10:12 AM MST (12/14)
Length of Visible Light 10h 13m
Length of Day
9h 10m
Waning Gibbous, 83% of the Moon is Illuminated
Dec 14
Waning Gibbous
Dec 17
Last Quarter
Dec 24
New
Dec 31
First Quarter
Jan 9
Full

Hourly Weather History & Observations

Time (MST) Temp. Windchill Dew Point Humidity Pressure Visibility Wind Dir Wind Speed Gust Speed Precip Events Conditions
12:53 AM 17.1 °F - 15.1 °F 92% 29.90 in 10.0 mi Calm Calm - N/A   Partly Cloudy
1:05 AM 17.6 °F - 15.8 °F 93% 29.85 in 10.0 mi Calm Calm - N/A   Mostly Cloudy
2:53 AM 21.0 °F 12.4 °F 17.1 °F 85% 29.90 in 10.0 mi Variable 6.9 mph - N/A   Overcast
3:53 AM 21.0 °F 8.1 °F 18.0 °F 88% 29.90 in 10.0 mi WSW 13.8 mph 20.7 mph N/A   Overcast
4:53 AM 21.9 °F 10.4 °F 18.0 °F 85% 29.90 in 10.0 mi WSW 11.5 mph - N/A   Overcast
5:53 AM 21.0 °F 5.4 °F 17.1 °F 85% 29.92 in 10.0 mi WSW 20.7 mph 27.6 mph N/A   Mostly Cloudy
6:53 AM 19.9 °F 8.6 °F 15.1 °F 81% 29.95 in 10.0 mi WSW 10.4 mph 16.1 mph N/A   Clear
7:53 AM 19.9 °F 3.5 °F 15.1 °F 81% 29.96 in 10.0 mi WSW 21.9 mph 26.5 mph N/A   Clear
8:35 AM 19.4 °F 2.5 °F 15.8 °F 86% 29.88 in 10.0 mi WSW 23.0 mph 32.2 mph N/A   Mostly Cloudy
8:53 AM 19.9 °F 4.8 °F 16.0 °F 85% 30.00 in 10.0 mi WSW 18.4 mph 28.8 mph N/A   Overcast
9:53 AM 21.9 °F 6.9 °F 16.0 °F 78% 30.02 in 10.0 mi WSW 19.6 mph 35.7 mph N/A   Mostly Cloudy
10:53 AM 25.0 °F 9.5 °F 17.1 °F 72% 30.02 in 10.0 mi WSW 24.2 mph 33.4 mph N/A   Partly Cloudy
11:53 AM 26.1 °F 11.0 °F 18.0 °F 71% 30.04 in 10.0 mi WSW 24.2 mph 33.4 mph N/A   Mostly Cloudy
12:53 PM 27.0 °F 12.8 °F 19.9 °F 75% 30.06 in 2.0 mi WSW 21.9 mph 32.2 mph 0.00 in Snow Light Snow
1:13 PM 26.6 °F 12.7 °F 19.4 °F 74% 29.95 in 3.0 mi West 20.7 mph 27.6 mph 0.00 in Snow Light Snow
1:27 PM 28.4 °F 14.7 °F 21.2 °F 74% 29.95 in 2.5 mi WSW 21.9 mph 29.9 mph 0.00 in Snow Light Snow
1:32 PM 28.4 °F 14.7 °F 21.2 °F 74% 29.95 in 1.8 mi WSW 21.9 mph 29.9 mph 0.00 in Snow Light Snow
1:53 PM 28.0 °F 14.6 °F 21.0 °F 75% 30.03 in 2.5 mi West 20.7 mph 31.1 mph 0.00 in Snow Light Snow
2:01 PM 26.6 °F 13.1 °F 21.2 °F 80% 29.96 in 4.0 mi WSW 19.6 mph 28.8 mph 0.00 in Snow Light Snow
2:11 PM 26.6 °F 12.0 °F 21.2 °F 80% 29.96 in 1.8 mi West 23.0 mph 28.8 mph 0.00 in Snow Light Snow
2:24 PM 26.6 °F 13.8 °F 21.2 °F 80% 29.97 in 0.8 mi WSW 17.3 mph - 0.00 in Snow Light Snow
2:40 PM 26.6 °F 14.3 °F 21.2 °F 80% 29.97 in 1.2 mi West 16.1 mph - 0.00 in Snow Light Snow
2:53 PM 27.0 °F 13.9 °F 21.0 °F 78% 30.08 in 1.2 mi West 18.4 mph 25.3 mph 0.00 in Snow Light Snow
3:09 PM 26.6 °F 12.7 °F 21.2 °F 80% 29.98 in 3.0 mi West 20.7 mph 25.3 mph 0.00 in Snow Light Snow
3:22 PM 26.6 °F 14.7 °F 21.2 °F 80% 29.98 in 4.0 mi WSW 15.0 mph 23.0 mph 0.00 in Snow Light Snow
3:51 PM 26.6 °F 13.4 °F 21.2 °F 80% 29.99 in 10.0 mi West 18.4 mph 26.5 mph 0.00 in   Overcast
3:53 PM 27.0 °F 14.3 °F 21.9 °F 81% 30.10 in 10.0 mi West 17.3 mph - 0.00 in   Overcast
4:33 PM 26.6 °F 15.7 °F 21.2 °F 80% 30.02 in 3.0 mi West 12.7 mph - 0.00 in Snow Light Snow
4:53 PM 26.1 °F 13.6 °F 21.0 °F 81% 30.13 in 7.0 mi West 16.1 mph 24.2 mph 0.00 in   Overcast
5:53 PM 26.1 °F 14.0 °F 21.0 °F 81% 30.16 in 7.0 mi West 15.0 mph - 0.00 in Snow Light Snow
6:53 PM 25.0 °F 16.3 °F 21.0 °F 85% 30.19 in 5.0 mi WSW 8.1 mph - 0.00 in Snow Light Snow
7:53 PM 24.1 °F 12.0 °F 19.9 °F 84% 30.22 in 10.0 mi WSW 13.8 mph - 0.00 in   Overcast
8:53 PM 24.1 °F 12.0 °F 18.0 °F 77% 30.22 in 10.0 mi WSW 13.8 mph - N/A   Overcast
9:53 PM 21.9 °F 12.5 °F 17.1 °F 82% 30.22 in 10.0 mi WSW 8.1 mph - N/A   Overcast
10:53 PM 21.9 °F 13.4 °F 17.1 °F 82% 30.21 in 10.0 mi WSW 6.9 mph - N/A   Overcast
11:53 PM 19.9 °F 11.1 °F 15.1 °F 81% 30.23 in 10.0 mi WSW 6.9 mph - N/A   Overcast